FW9287 Weather Reports


Display with metric or nautical units.
time (UTC)temp
F
wind
direction
speed
MPH
gust
MPH
rain 1hr
in
rain 24hr
in
rain mn
in
humidity
%
barometer
mb
20260508110419 66 5 0.0 1.0 0.00 0.00 0.00 23 917.3
20260508110312 66 5 0.0 1.0 0.00 0.00 0.00 23 917.3
20260508110206 66 5 0.0 1.0 0.00 0.00 0.00 23 917.4
20260508110100 66 5 0.0 1.0 0.00 0.00 0.00 23 917.4
20260508105953 66 5 0.0 1.0 0.00 0.00 0.00 23 917.4
20260508105849 66 5 0.0 1.0 0.00 0.00 0.00 23 917.3
20260508105743 66 5 0.0 1.0 0.00 0.00 0.00 23 917.4
20260508105636 66 5 0.0 1.0 0.00 0.00 0.00 23 917.4
20260508105307 66 5 0.0 1.0 0.00 0.00 0.00 23 917.4
20260508105204 66 5 0.0 1.0 0.00 0.00 0.00 23 917.3
20260508104838 66 5 0.0 1.0 0.00 0.00 0.00 23 917.3
20260508104736 66 5 0.0 1.0 0.00 0.00 0.00 23 917.3
20260508104630 66 5 0.0 0.0 0.00 0.00 0.00 23 917.3
20260508104526 66 5 0.0 0.0 0.00 0.00 0.00 23 917.3
20260508103942 66 5 0.0 0.0 0.00 0.00 0.00 24 917.4
20260508103839 66 5 0.0 0.0 0.00 0.00 0.00 24 917.4
20260508103734 66 5 0.0 0.0 0.00 0.00 0.00 24 917.4
20260508103407 67 5 0.0 1.0 0.00 0.00 0.00 23 917.3
20260508103304 67 5 0.0 1.0 0.00 0.00 0.00 23 917.3
20260508103159 67 5 0.0 0.0 0.00 0.00 0.00 23 917.3
20260508103055 67 5 0.0 0.0 0.00 0.00 0.00 23 917.3
20260508102951 67 5 0.0 0.0 0.00 0.00 0.00 23 917.2
20260508102848 67 5 0.0 0.0 0.00 0.00 0.00 23 917.3
20260508102742 67 5 0.0 0.0 0.00 0.00 0.00 23 917.3
20260508102640 67 5 0.0 1.0 0.00 0.00 0.00 23 917.3
20260508102534 67 5 0.0 1.0 0.00 0.00 0.00 23 917.3
20260508102431 67 5 0.0 1.0 0.00 0.00 0.00 23 917.4
20260508102106 67 5 0.0 0.0 0.00 0.00 0.00 24 917.4
20260508102001 67 5 0.0 0.0 0.00 0.00 0.00 24 917.4
20260508101858 67 5 0.0 0.0 0.00 0.00 0.00 24 917.3
20260508101752 67 5 0.0 0.0 0.00 0.00 0.00 24 917.3
20260508101423 67 5 0.0 0.0 0.00 0.00 0.00 24 917.3
20260508101100 67 5 0.0 0.0 0.00 0.00 0.00 24 917.3
20260508100735 67 5 0.0 1.0 0.00 0.00 0.00 24 917.3
20260508100410 67 5 0.0 1.0 0.00 0.00 0.00 23 917.2
20260508100303 67 5 0.0 1.0 0.00 0.00 0.00 23 917.3
20260508100157 67 5 0.0 1.0 0.00 0.00 0.00 22 917.3
20260508100050 67 5 0.0 0.0 0.00 0.00 0.00 22 917.2
20260508095948 67 5 0.0 0.0 0.00 0.00 0.00 22 917.3
20260508095841 67 5 0.0 0.0 0.00 0.00 0.00 22 917.3
20260508095512 67 5 0.0 2.0 0.00 0.00 0.00 23 917.3
20260508095408 67 351 0.0 1.0 0.00 0.00 0.00 23 917.3
20260508095305 67 355 0.0 1.0 0.00 0.00 0.00 23 917.3
20260508095157 67 332 0.0 1.0 0.00 0.00 0.00 23 917.3
20260508095055 67 332 0.0 1.0 0.00 0.00 0.00 22 917.3
20260508094948 67 332 0.0 1.0 0.00 0.00 0.00 22 917.3
20260508094845 67 332 0.0 1.0 0.00 0.00 0.00 23 917.3
20260508094741 67 332 0.0 1.0 0.00 0.00 0.00 23 917.3
20260508094637 67 332 0.0 1.0 0.00 0.00 0.00 23 917.3
20260508094529 67 332 0.0 1.0 0.00 0.00 0.00 23 917.3
20260508094421 67 332 0.0 1.0 0.00 0.00 0.00 23 917.2
20260508093613 68 332 0.0 0.0 0.00 0.00 0.00 22 917.3
20260508093509 68 332 0.0 1.0 0.00 0.00 0.00 22 917.3
20260508093402 68 332 0.0 1.0 0.00 0.00 0.00 22 917.2
20260508093255 68 320 0.0 1.0 0.00 0.00 0.00 22 917.3
20260508093152 68 285 0.0 0.0 0.00 0.00 0.00 22 917.3
20260508092342 68 284 0.0 0.0 0.00 0.00 0.00 22 917.1
20260508092239 68 284 0.0 0.0 0.00 0.00 0.00 22 917.1
20260508092133 68 284 0.0 0.0 0.00 0.00 0.00 22 917.1
20260508092026 68 284 0.0 0.0 0.00 0.00 0.00 22 917.2
20260508090953 69 348 0.0 2.0 0.00 0.00 0.00 21 917.3
20260508090625 69 348 1.0 2.0 0.00 0.00 0.00 21 917.3
20260508090516 69 348 1.0 2.0 0.00 0.00 0.00 21 917.3
20260508090409 69 348 1.0 2.0 0.00 0.00 0.00 21 917.3
20260508090304 69 348 1.0 2.0 0.00 0.00 0.00 21 917.2
20260508090157 69 348 1.0 2.0 0.00 0.00 0.00 21 917.2
20260508090048 69 348 1.0 2.0 0.00 0.00 0.00 20 917.3
20260508085940 69 5 1.0 2.0 0.00 0.00 0.00 20 917.3
20260508085836 69 355 0.0 2.0 0.00 0.00 0.00 20 917.3
20260508085733 69 5 0.0 2.0 0.00 0.00 0.00 20 917.3
20260508085625 69 10 0.0 1.0 0.00 0.00 0.00 20 917.3
20260508085306 70 350 0.0 1.0 0.00 0.00 0.00 20 917.3
20260508085156 70 334 0.0 1.0 0.00 0.00 0.00 20 917.3
20260508084831 70 284 0.0 1.0 0.00 0.00 0.00 20 917.3
20260508084503 71 284 0.0 1.0 0.00 0.00 0.00 20 917.4
20260508084400 71 284 0.0 1.0 0.00 0.00 0.00 20 917.4
20260508084036 71 284 0.0 1.0 0.00 0.00 0.00 19 917.4
20260508083932 71 284 0.0 1.0 0.00 0.00 0.00 19 917.4
20260508083828 71 284 0.0 1.0 0.00 0.00 0.00 19 917.4
20260508083721 71 284 0.0 0.0 0.00 0.00 0.00 19 917.4
20260508083612 71 284 0.0 0.0 0.00 0.00 0.00 19 917.4
20260508083508 71 284 0.0 0.0 0.00 0.00 0.00 19 917.4
20260508082924 72 284 0.0 3.0 0.00 0.00 0.00 19 917.3
20260508082821 72 284 0.0 3.0 0.00 0.00 0.00 19 917.4
20260508082717 72 284 0.0 3.0 0.00 0.00 0.00 18 917.4
20260508082613 72 284 0.0 3.0 0.00 0.00 0.00 18 917.3
20260508082505 73 276 0.0 3.0 0.00 0.00 0.00 18 917.4
20260508082141 73 236 0.0 3.0 0.00 0.00 0.00 18 917.3
20260508082038 73 236 0.0 3.0 0.00 0.00 0.00 18 917.4
20260508081711 74 220 0.0 2.0 0.00 0.00 0.00 18 917.4
20260508081608 74 228 0.0 1.0 0.00 0.00 0.00 18 917.4
20260508081502 74 228 0.0 0.0 0.00 0.00 0.00 18 917.3
20260508080659 75 234 0.0 0.0 0.00 0.00 0.00 18 917.4
20260508080552 75 234 0.0 0.0 0.00 0.00 0.00 18 917.3
20260508080450 75 234 0.0 3.0 0.00 0.00 0.00 18 917.4
20260508080343 75 234 0.0 3.0 0.00 0.00 0.00 17 917.3
20260508080236 76 225 0.0 3.0 0.00 0.00 0.00 18 917.3
20260508080128 76 355 0.0 3.0 0.00 0.00 0.00 17 917.3
20260508080022 76 292 0.0 3.0 0.00 0.00 0.00 17 917.3
20260508075700 76 254 1.0 3.0 0.00 0.00 0.00 17 917.3
20260508075557 76 254 1.0 3.0 0.00 0.00 0.00 17 917.3
20260508075455 76 234 1.0 3.0 0.00 0.00 0.00 17 917.3
20260508075352 76 236 1.0 3.0 0.00 0.00 0.00 17 917.3
20260508075247 76 226 1.0 3.0 0.00 0.00 0.00 17 917.4
20260508075140 77 175 1.0 3.0 0.00 0.00 0.00 17 917.3
20260508075036 77 37 1.0 3.0 0.00 0.00 0.00 17 917.3
20260508074930 77 36 1.0 3.0 0.00 0.00 0.00 17 917.3
20260508074828 77 34 1.0 3.0 0.00 0.00 0.00 17 917.3
20260508074503 77 38 2.0 4.0 0.00 0.00 0.00 17 917.3
20260508074400 77 38 2.0 4.0 0.00 0.00 0.00 17 917.3
20260508074255 77 44 2.0 4.0 0.00 0.00 0.00 17 917.3
20260508074151 76 56 2.0 4.0 0.00 0.00 0.00 17 917.2
20260508074044 76 46 2.0 4.0 0.00 0.00 0.00 17 917.3
20260508073938 76 53 2.0 4.0 0.00 0.00 0.00 17 917.2
20260508073831 76 35 2.0 4.0 0.00 0.00 0.00 17 917.3
20260508073507 76 44 2.0 4.0 0.00 0.00 0.00 17 917.2
20260508073400 76 44 2.0 4.0 0.00 0.00 0.00 17 917.2
20260508073256 76 57 2.0 4.0 0.00 0.00 0.00 17 917.1
20260508073150 75 46 2.0 4.0 0.00 0.00 0.00 17 917.2
20260508073046 75 67 2.0 4.0 0.00 0.00 0.00 17 917.2
20260508072941 75 55 2.0 4.0 0.00 0.00 0.00 17 917.2
20260508072838 75 51 2.0 4.0 0.00 0.00 0.00 18 917.1
20260508072732 75 40 2.0 4.0 0.00 0.00 0.00 18 917.1
20260508072148 74 71 2.0 4.0 0.00 0.00 0.00 18 917.1
20260508072041 74 61 2.0 4.0 0.00 0.00 0.00 18 917.2
20260508071935 74 62 2.0 4.0 0.00 0.00 0.00 18 917.1
20260508071828 74 62 2.0 4.0 0.00 0.00 0.00 18 917.1
20260508071503 73 55 1.0 3.0 0.00 0.00 0.00 18 917.1
20260508071357 73 44 1.0 3.0 0.00 0.00 0.00 18 917.1
20260508071253 73 36 1.0 3.0 0.00 0.00 0.00 19 917.1
20260508071147 73 36 1.0 3.0 0.00 0.00 0.00 18 917.1
20260508071045 73 39 1.0 3.0 0.00 0.00 0.00 18 917.1
20260508070937 73 36 1.0 3.0 0.00 0.00 0.00 18 917.2
20260508070835 73 39 1.0 3.0 0.00 0.00 0.00 18 917.1
20260508070729 73 30 1.0 4.0 0.00 0.00 0.00 18 917.1
20260508070624 73 29 2.0 4.0 0.00 0.00 0.00 18 917.1
20260508070518 73 22 2.0 4.0 0.00 0.00 0.00 18 917.1
20260508070411 73 28 2.0 4.0 0.00 0.00 0.00 18 917.1
20260508070306 73 31 2.0 4.0 0.00 0.00 0.00 18 917.2
20260508070203 74 24 2.0 4.0 0.00 0.00 0.00 18 917.2
20260508070059 74 30 2.0 4.0 0.00 0.00 0.00 18 917.2
20260508065953 74 24 2.0 4.0 0.00 0.00 0.00 18 917.2
20260508065850 74 22 1.0 4.0 0.00 0.00 0.00 18 917.2
20260508065306 74 5 0.0 9.0 0.00 0.00 0.00 18 917.2
20260508065201 75 0 0.0 9.0 0.00 0.00 0.00 18 917.2
20260508064830 75 332 0.0 9.0 0.00 0.00 0.00 17 917.2
20260508064723 75 315 0.0 1.0 0.00 0.00 0.00 17 917.3
20260508064616 75 309 0.0 1.0 0.00 0.00 0.00 17 917.3
20260508064510 75 305 0.0 1.0 0.00 0.00 0.00 17 917.3
20260508064407 75 305 0.0 1.0 0.00 0.00 0.00 17 917.3
20260508064301 75 303 0.0 1.0 0.00 0.00 0.00 17 917.2
20260508064153 75 286 0.0 1.0 0.00 0.00 0.00 17 917.3
20260508064048 76 286 0.0 1.0 0.00 0.00 0.00 17 917.2
20260508063945 76 234 1.0 1.0 0.00 0.00 0.00 17 917.2
20260508063622 76 234 1.0 0.0 0.00 0.00 0.00 17 917.1
20260508063518 76 234 1.0 8.0 0.00 0.00 0.00 17 917.1
20260508063411 76 234 2.0 8.0 0.00 0.00 0.00 17 917.1
20260508063307 76 234 2.0 8.0 0.00 0.00 0.00 17 917.1
20260508063204 77 244 2.0 8.0 0.00 0.00 0.00 17 917.1
20260508063100 77 242 2.0 8.0 0.00 0.00 0.00 17 917.1
20260508062957 77 236 1.0 8.0 0.00 0.00 0.00 17 917.0
20260508062632 77 237 2.0 9.0 0.00 0.00 0.00 16 917.0
20260508062526 78 221 2.0 9.0 0.00 0.00 0.00 16 916.9
20260508062421 78 215 1.0 9.0 0.00 0.00 0.00 16 916.9
20260508062316 78 226 1.0 9.0 0.00 0.00 0.00 16 916.9
20260508062212 78 44 1.0 3.0 0.00 0.00 0.00 16 916.7
20260508062105 78 44 1.0 3.0 0.00 0.00 0.00 16 916.6
20260508062002 78 44 1.0 3.0 0.00 0.00 0.00 16 916.7
20260508061859 78 30 2.0 3.0 0.00 0.00 0.00 16 916.6
20260508061757 78 35 2.0 3.0 0.00 0.00 0.00 16 916.6
20260508061432 78 25 2.0 3.0 0.00 0.00 0.00 16 916.6
20260508060847 78 26 2.0 3.0 0.00 0.00 0.00 16 916.6
20260508060743 78 19 2.0 3.0 0.00 0.00 0.00 16 916.7
20260508060641 78 25 2.0 3.0 0.00 0.00 0.00 16 916.6
20260508060532 78 20 1.0 6.0 0.00 0.00 0.00 16 916.6
20260508060427 78 32 2.0 6.0 0.00 0.00 0.00 16 916.7
20260508055844 79 47 2.0 6.0 0.00 0.00 0.00 16 916.6
20260508055516 79 28 2.0 6.0 0.00 0.00 0.00 15 916.6
20260508055410 79 30 2.0 6.0 0.00 0.00 0.00 16 916.6
20260508055306 79 13 2.0 6.0 0.00 0.00 0.00 15 916.6
20260508055159 79 39 2.0 6.0 0.00 0.00 0.00 15 916.6
20260508054831 79 26 2.0 6.0 0.00 0.00 0.00 15 916.6
20260508054248 79 32 2.0 5.0 0.00 0.00 0.00 16 916.6
20260508054144 79 26 2.0 5.0 0.00 0.00 0.00 15 916.6
20260508054037 79 20 2.0 5.0 0.00 0.00 0.00 15 916.6
20260508053932 79 16 2.0 5.0 0.00 0.00 0.00 15 916.6
20260508053609 79 32 1.0 4.0 0.00 0.00 0.00 15 916.6
20260508053505 79 41 1.0 4.0 0.00 0.00 0.00 15 916.6
20260508053401 79 28 1.0 4.0 0.00 0.00 0.00 15 916.6
20260508053038 79 43 2.0 4.0 0.00 0.00 0.00 15 916.6
20260508052712 79 32 1.0 4.0 0.00 0.00 0.00 15 916.6
20260508052346 80 34 2.0 4.0 0.00 0.00 0.00 15 916.7
20260508052022 80 45 1.0 3.0 0.00 0.00 0.00 15 916.7
20260508051916 80 49 1.0 3.0 0.00 0.00 0.00 15 916.6
20260508051810 80 50 1.0 3.0 0.00 0.00 0.00 15 916.7
20260508051707 80 26 1.0 3.0 0.00 0.00 0.00 15 916.6
20260508051604 80 38 2.0 3.0 0.00 0.00 0.00 15 916.6
20260508051459 80 34 2.0 5.0 0.00 0.00 0.00 15 916.6
20260508051351 80 38 2.0 5.0 0.00 0.00 0.00 15 916.6
20260508051243 80 30 2.0 5.0 0.00 0.00 0.00 15 916.6
20260508051138 80 40 2.0 5.0 0.00 0.00 0.00 15 916.6
20260508051031 80 38 2.0 5.0 0.00 0.00 0.00 15 916.6
20260508050929 80 32 2.0 5.0 0.00 0.00 0.00 15 916.6
20260508050826 80 38 2.0 5.0 0.00 0.00 0.00 15 916.6
20260508050724 80 37 3.0 5.0 0.00 0.00 0.00 15 916.6
20260508050620 80 43 3.0 5.0 0.00 0.00 0.00 15 916.6
20260508050516 80 49 3.0 5.0 0.00 0.00 0.00 15 916.6
20260508050413 80 33 3.0 5.0 0.00 0.00 0.00 15 916.6
20260508050305 80 44 2.0 5.0 0.00 0.00 0.00 15 916.7
20260508050157 80 51 2.0 5.0 0.00 0.00 0.00 15 916.6
20260508050051 80 54 2.0 5.0 0.00 0.00 0.00 15 916.6
20260508045943 80 49 2.0 5.0 0.00 0.00 0.00 15 916.6
20260508045840 80 52 2.0 5.0 0.00 0.00 0.00 15 916.6
20260508045515 80 61 2.0 4.0 0.00 0.00 0.00 15 916.6
20260508045411 80 52 2.0 4.0 0.00 0.00 0.00 15 916.6
20260508045307 80 53 2.0 4.0 0.00 0.00 0.00 15 916.6
20260508045200 80 58 2.0 4.0 0.00 0.00 0.00 15 916.6
20260508045054 80 42 2.0 4.0 0.00 0.00 0.00 15 916.6
20260508044946 80 82 2.0 4.0 0.00 0.00 0.00 15 916.7
20260508044838 80 67 2.0 4.0 0.00 0.00 0.00 15 916.6
20260508044731 80 63 1.0 4.0 0.00 0.00 0.00 15 916.7
20260508044407 80 65 1.0 3.0 0.00 0.00 0.00 15 916.7
20260508044304 80 83 1.0 3.0 0.00 0.00 0.00 15 916.6
20260508044157 80 86 1.0 3.0 0.00 0.00 0.00 15 916.7
20260508044054 80 84 1.0 3.0 0.00 0.00 0.00 15 916.6
20260508043949 80 66 1.0 3.0 0.00 0.00 0.00 15 916.7
20260508043840 80 92 1.0 3.0 0.00 0.00 0.00 15 916.6
20260508043735 80 85 1.0 2.0 0.00 0.00 0.00 15 916.6
20260508043630 80 78 1.0 2.0 0.00 0.00 0.00 15 916.6
20260508043527 80 72 1.0 2.0 0.00 0.00 0.00 15 916.6
20260508043200 80 79 1.0 2.0 0.00 0.00 0.00 15 916.6
20260508043052 80 74 1.0 2.0 0.00 0.00 0.00 15 916.6
20260508042727 80 77 1.0 2.0 0.00 0.00 0.00 15 916.6
20260508042619 81 88 1.0 2.0 0.00 0.00 0.00 15 916.6
20260508042513 81 82 1.0 2.0 0.00 0.00 0.00 15 916.6
20260508042409 81 55 1.0 2.0 0.00 0.00 0.00 15 916.6
20260508042307 81 90 1.0 4.0 0.00 0.00 0.00 15 916.6
20260508042202 81 77 1.0 4.0 0.00 0.00 0.00 15 916.6
20260508042057 81 80 1.0 4.0 0.00 0.00 0.00 15 916.6
20260508041955 81 80 1.0 4.0 0.00 0.00 0.00 15 916.5
20260508041851 81 88 1.0 4.0 0.00 0.00 0.00 15 916.5
20260508041749 81 81 1.0 4.0 0.00 0.00 0.00 15 916.5
20260508041424 81 77 1.0 4.0 0.00 0.00 0.00 15 916.5
20260508041320 81 38 1.0 4.0 0.00 0.00 0.00 15 916.5
20260508041216 81 70 1.0 4.0 0.00 0.00 0.00 15 916.5
20260508041109 81 65 1.0 4.0 0.00 0.00 0.00 15 916.4
20260508041003 81 62 2.0 4.0 0.00 0.00 0.00 15 916.4
20260508040858 81 65 1.0 4.0 0.00 0.00 0.00 15 916.4
20260508040753 81 68 1.0 4.0 0.00 0.00 0.00 15 916.4
20260508040431 81 74 1.0 4.0 0.00 0.00 0.00 15 916.3
20260508040325 81 63 1.0 4.0 0.00 0.00 0.00 15 916.3
20260508040223 81 62 1.0 3.0 0.00 0.00 0.00 15 916.3
20260508040117 81 55 1.0 3.0 0.00 0.00 0.00 15 916.3
20260508040009 81 68 1.0 3.0 0.00 0.00 0.00 15 916.3
20260508035903 81 67 1.0 2.0 0.00 0.00 0.00 15 916.3
20260508035314 81 62 1.0 2.0 0.00 0.00 0.00 15 916.2
20260508035211 81 87 1.0 2.0 0.00 0.00 0.00 15 916.3
20260508035109 81 81 1.0 2.0 0.00 0.00 0.00 15 916.3
20260508035006 82 48 1.0 2.0 0.00 0.00 0.00 15 916.2
20260508034902 82 79 0.0 2.0 0.00 0.00 0.00 15 916.3
20260508034759 82 60 0.0 2.0 0.00 0.00 0.00 15 916.3
20260508034656 82 51 0.0 2.0 0.00 0.00 0.00 15 916.2
20260508034553 82 66 0.0 2.0 0.00 0.00 0.00 15 916.3
20260508034449 82 77 0.0 1.0 0.00 0.00 0.00 15 916.2
20260508034345 82 74 0.0 1.0 0.00 0.00 0.00 15 916.2
20260508034024 82 84 0.0 1.0 0.00 0.00 0.00 15 916.2
20260508033920 82 84 0.0 1.0 0.00 0.00 0.00 14 916.1
20260508033817 82 105 0.0 1.0 0.00 0.00 0.00 14 916.2
20260508033715 82 109 0.0 1.0 0.00 0.00 0.00 14 916.1
20260508033607 82 109 0.0 1.0 0.00 0.00 0.00 14 916.1
20260508033501 83 111 0.0 1.0 0.00 0.00 0.00 14 916.1
20260508033137 83 132 0.0 1.0 0.00 0.00 0.00 14 916.1
20260508033029 83 157 0.0 1.0 0.00 0.00 0.00 14 916.1
20260508032923 83 157 0.0 1.0 0.00 0.00 0.00 14 916.1
20260508032817 83 158 0.0 0.0 0.00 0.00 0.00 14 916.1
20260508032710 83 178 0.0 0.0 0.00 0.00 0.00 14 916.1
20260508032606 84 178 0.0 0.0 0.00 0.00 0.00 14 916.0
20260508032459 84 184 0.0 0.0 0.00 0.00 0.00 14 916.0
20260508032355 84 184 0.0 0.0 0.00 0.00 0.00 14 916.0
20260508032251 84 200 0.0 0.0 0.00 0.00 0.00 14 916.0
20260508032144 84 200 0.0 0.0 0.00 0.00 0.00 14 916.0
20260508032038 84 200 0.0 0.0 0.00 0.00 0.00 14 916.0
20260508031931 84 200 0.0 0.0 0.00 0.00 0.00 14 916.0
20260508031828 84 200 0.0 0.0 0.00 0.00 0.00 14 916.0
20260508031725 85 200 0.0 0.0 0.00 0.00 0.00 14 916.0
20260508031621 85 200 0.0 0.0 0.00 0.00 0.00 13 915.9
20260508031515 85 200 0.0 0.0 0.00 0.00 0.00 14 916.0
20260508031411 85 200 0.0 0.0 0.00 0.00 0.00 14 916.0
20260508031306 85 200 0.0 0.0 0.00 0.00 0.00 13 915.9
20260508031200 85 200 0.0 0.0 0.00 0.00 0.00 13 915.9
20260508031056 85 200 0.0 1.0 0.00 0.00 0.00 13 915.9
20260508030954 85 200 0.0 1.0 0.00 0.00 0.00 13 915.9
20260508030850 85 200 0.0 0.0 0.00 0.00 0.00 13 915.9
20260508030743 85 200 0.0 0.0 0.00 0.00 0.00 13 915.9
20260508030638 86 200 0.0 0.0 0.00 0.00 0.00 13 915.9
20260508030312 86 200 0.0 0.0 0.00 0.00 0.00 13 915.9
20260508030206 86 200 0.0 0.0 0.00 0.00 0.00 13 915.9
20260508030059 86 200 0.0 0.0 0.00 0.00 0.00 13 915.9
20260508025953 86 200 0.0 0.0 0.00 0.00 0.00 13 915.9
20260508025851 86 200 0.0 0.0 0.00 0.00 0.00 13 915.9
20260508025523 86 200 0.0 0.0 0.00 0.00 0.00 13 915.8
20260508025419 86 200 0.0 0.0 0.00 0.00 0.00 13 915.8
20260508025315 87 200 0.0 0.0 0.00 0.00 0.00 13 915.8
20260508025212 87 200 0.0 0.0 0.00 0.00 0.00 13 915.8
20260508025105 87 200 0.0 0.0 0.00 0.00 0.00 13 915.8
20260508024958 87 200 0.0 0.0 0.00 0.00 0.00 13 915.7
20260508024851 87 200 0.0 0.0 0.00 0.00 0.00 13 915.8
20260508024744 87 200 0.0 0.0 0.00 0.00 0.00 13 915.8
20260508024642 87 200 0.0 0.0 0.00 0.00 0.00 13 915.8
20260508024100 88 200 0.0 0.0 0.00 0.00 0.00 12 915.7
20260508023734 88 200 0.0 0.0 0.00 0.00 0.00 12 915.7
20260508023410 88 200 0.0 0.0 0.00 0.00 0.00 12 915.7
20260508023308 88 200 0.0 2.0 0.00 0.00 0.00 12 915.7
20260508023204 88 200 0.0 2.0 0.00 0.00 0.00 12 915.6
20260508023102 88 200 0.0 2.0 0.00 0.00 0.00 12 915.7
20260508022958 88 200 0.0 2.0 0.00 0.00 0.00 12 915.6
20260508022850 89 200 0.0 2.0 0.00 0.00 0.00 12 915.6
20260508022744 89 200 0.0 2.0 0.00 0.00 0.00 12 915.6
20260508022642 89 200 0.0 2.0 0.00 0.00 0.00 12 915.6
20260508022538 89 200 0.0 2.0 0.00 0.00 0.00 12 915.6
20260508022435 89 200 1.0 2.0 0.00 0.00 0.00 12 915.6
20260508022332 89 200 1.0 2.0 0.00 0.00 0.00 12 915.6
20260508022006 89 184 1.0 2.0 0.00 0.00 0.00 11 915.6
20260508021858 89 185 0.0 2.0 0.00 0.00 0.00 11 915.6
20260508021754 90 191 0.0 2.0 0.00 0.00 0.00 11 915.5
20260508021428 90 203 0.0 2.0 0.00 0.00 0.00 11 915.5
20260508021326 90 221 0.0 2.0 0.00 0.00 0.00 11 915.5
20260508021223 90 221 0.0 2.0 0.00 0.00 0.00 11 915.5
20260508021120 90 221 0.0 6.0 0.00 0.00 0.00 11 915.5
20260508021012 90 221 1.0 6.0 0.00 0.00 0.00 11 915.5
20260508020645 90 221 2.0 6.0 0.00 0.00 0.00 11 915.5
20260508020539 90 221 2.0 6.0 0.00 0.00 0.00 11 915.5
20260508020218 91 211 3.0 6.0 0.00 0.00 0.00 10 915.5
20260508020115 91 244 3.0 6.0 0.00 0.00 0.00 10 915.5
20260508020012 91 225 3.0 6.0 0.00 0.00 0.00 10 915.5
20260508015907 91 239 3.0 6.0 0.00 0.00 0.00 10 915.5
20260508015804 91 251 2.0 6.0 0.00 0.00 0.00 10 915.5
20260508015438 91 215 1.0 6.0 0.00 0.00 0.00 10 915.6
20260508015331 92 239 1.0 6.0 0.00 0.00 0.00 10 915.5
20260508015006 92 209 0.0 2.0 0.00 0.00 0.00 10 915.5
20260508014903 92 255 0.0 2.0 0.00 0.00 0.00 10 915.6
20260508014758 92 231 0.0 0.0 0.00 0.00 0.00 10 915.5
20260508014655 92 231 0.0 0.0 0.00 0.00 0.00 10 915.5
20260508014549 92 231 0.0 1.0 0.00 0.00 0.00 10 915.6
20260508014442 92 231 0.0 0.0 0.00 0.00 0.00 10 915.6
20260508014338 92 231 0.0 8.0 0.00 0.00 0.00 10 915.5
20260508014016 92 315 0.0 8.0 0.00 0.00 0.00 9 915.6
20260508013647 92 338 1.0 8.0 0.00 0.00 0.00 9 915.6
20260508013102 93 207 1.0 8.0 0.00 0.00 0.00 10 915.5
20260508012958 93 231 2.0 8.0 0.00 0.00 0.00 10 915.5
20260508012852 93 161 2.0 8.0 0.00 0.00 0.00 9 915.5
20260508012531 93 254 3.0 8.0 0.00 0.00 0.00 9 915.6
20260508012428 93 243 3.0 8.0 0.00 0.00 0.00 9 915.6
20260508012100 93 253 2.0 8.0 0.00 0.00 0.00 9 915.6
20260508011957 93 210 2.0 8.0 0.00 0.00 0.00 9 915.5
20260508011855 93 221 1.0 8.0 0.00 0.00 0.00 9 915.5
20260508011748 94 301 1.0 8.0 0.00 0.00 0.00 9 915.5
20260508011646 94 281 1.0 8.0 0.00 0.00 0.00 9 915.5
20260508011326 94 295 1.0 8.0 0.00 0.00 0.00 9 915.6
20260508011222 94 253 2.0 8.0 0.00 0.00 0.00 9 915.6
20260508011115 94 243 2.0 8.0 0.00 0.00 0.00 9 915.6
20260508011008 94 297 2.0 8.0 0.00 0.00 0.00 9 915.7
20260508010904 94 259 2.0 8.0 0.00 0.00 0.00 9 915.6
20260508010800 94 271 1.0 8.0 0.00 0.00 0.00 9 915.6
20260508010655 94 270 1.0 6.0 0.00 0.00 0.00 9 915.7
20260508010551 94 287 1.0 5.0 0.00 0.00 0.00 9 915.6
20260508010444 94 255 1.0 5.0 0.00 0.00 0.00 9 915.6
20260508010339 94 271 1.0 5.0 0.00 0.00 0.00 9 915.7
20260508010235 94 299 1.0 5.0 0.00 0.00 0.00 9 915.7
20260508010128 94 225 0.0 5.0 0.00 0.00 0.00 9 915.6
20260508010022 94 219 0.0 3.0 0.00 0.00 0.00 9 915.6
20260508005918 94 198 0.0 3.0 0.00 0.00 0.00 9 915.7
20260508005815 94 217 0.0 6.0 0.00 0.00 0.00 9 915.7
20260508005707 94 225 0.0 6.0 0.00 0.00 0.00 9 915.7
20260508005600 94 223 0.0 6.0 0.00 0.00 0.00 9 915.7
20260508005456 94 223 0.0 6.0 0.00 0.00 0.00 9 915.7
20260508005350 94 296 1.0 6.0 0.00 0.00 0.00 9 915.7
20260508005247 94 257 1.0 6.0 0.00 0.00 0.00 9 915.8
20260508005143 94 288 1.0 6.0 0.00 0.00 0.00 9 915.7
20260508005036 94 306 1.0 6.0 0.00 0.00 0.00 8 915.7
20260508004933 94 313 1.0 6.0 0.00 0.00 0.00 8 915.7
20260508004613 94 0 1.0 6.0 0.00 0.00 0.00 8 915.7
20260508004247 94 298 2.0 6.0 0.00 0.00 0.00 8 915.8
20260508004144 94 355 2.0 6.0 0.00 0.00 0.00 9 915.8
20260508004038 94 296 2.0 6.0 0.00 0.00 0.00 8 915.8
20260508003935 94 309 1.0 6.0 0.00 0.00 0.00 8 915.7
20260508003831 94 319 1.0 5.0 0.00 0.00 0.00 8 915.7
20260508003724 94 290 1.0 5.0 0.00 0.00 0.00 8 915.8
20260508003620 94 299 1.0 5.0 0.00 0.00 0.00 8 915.8
20260508003517 95 0 1.0 5.0 0.00 0.00 0.00 8 915.8
20260508003409 95 351 0.0 5.0 0.00 0.00 0.00 8 915.8
20260508003303 94 311 1.0 5.0 0.00 0.00 0.00 8 915.8
20260508003159 94 355 1.0 5.0 0.00 0.00 0.00 8 915.8
20260508003055 94 227 1.0 5.0 0.00 0.00 0.00 9 915.8
20260508002948 94 223 1.0 5.0 0.00 0.00 0.00 9 915.8
20260508002842 94 199 1.0 5.0 0.00 0.00 0.00 8 915.8
20260508002739 94 199 1.0 5.0 0.00 0.00 0.00 8 915.8
20260508002633 94 229 1.0 8.0 0.00 0.00 0.00 8 915.8
20260508002525 94 340 1.0 8.0 0.00 0.00 0.00 8 915.8
20260508002421 94 254 1.0 8.0 0.00 0.00 0.00 9 915.8
20260508002101 94 293 2.0 8.0 0.00 0.00 0.00 9 915.8
20260508001957 94 234 2.0 8.0 0.00 0.00 0.00 9 915.8
20260508001851 94 254 2.0 8.0 0.00 0.00 0.00 9 915.8
20260508001746 94 263 2.0 8.0 0.00 0.00 0.00 9 915.9
20260508001638 94 277 2.0 11.0 0.00 0.00 0.00 9 915.8
20260508001532 94 246 2.0 11.0 0.00 0.00 0.00 9 915.8
20260508001428 94 225 2.0 11.0 0.00 0.00 0.00 9 915.8
20260508001325 94 242 1.0 11.0 0.00 0.00 0.00 9 915.9
20260508001220 94 275 1.0 11.0 0.00 0.00 0.00 9 915.9
20260508001116 94 338 1.0 11.0 0.00 0.00 0.00 9 915.9
20260508000750 94 223 3.0 11.0 0.00 0.00 0.00 8 915.9
20260508000644 94 221 3.0 11.0 0.00 0.00 0.00 8 915.9
20260508000540 94 236 4.0 11.0 0.00 0.00 0.00 8 915.9
20260508000437 94 180 4.0 11.0 0.00 0.00 0.00 8 915.9
20260508000334 94 163 4.0 11.0 0.00 0.00 0.00 8 915.9
20260508000229 94 168 4.0 11.0 0.00 0.00 0.00 8 915.9
20260508000124 94 156 4.0 11.0 0.00 0.00 0.00 8 916.0
20260508000018 94 182 4.0 11.0 0.00 0.00 0.00 8 916.0
20260507235913 94 195 4.0 11.0 0.00 0.00 0.00 7 915.9
20260507235808 95 217 4.0 11.0 0.00 0.00 0.00 8 915.9
20260507235703 95 238 3.0 9.0 0.00 0.00 0.00 8 916.0
20260507235556 95 228 3.0 9.0 0.00 0.00 0.00 8 916.0
20260507235453 95 240 3.0 9.0 0.00 0.00 0.00 8 916.0
20260507235349 95 252 3.0 8.0 0.00 0.00 0.00 8 916.0
20260507235245 95 243 3.0 8.0 0.00 0.00 0.00 8 916.0
20260507235137 95 237 2.0 8.0 0.00 0.00 0.00 8 915.9
20260507235035 95 240 2.0 8.0 0.00 0.00 0.00 8 916.0
20260507234710 95 258 2.0 8.0 0.00 0.00 0.00 8 916.0
20260507234605 95 283 2.0 8.0 0.00 0.00 0.00 7 915.9
20260507234237 95 298 2.0 6.0 0.00 0.00 0.00 8 916.0
20260507234131 95 284 2.0 8.0 0.00 0.00 0.00 8 916.0
20260507234025 95 261 1.0 8.0 0.00 0.00 0.00 8 916.0
20260507233918 95 264 2.0 8.0 0.00 0.00 0.00 8 916.0
20260507233816 94 279 2.0 8.0 0.00 0.00 0.00 8 916.0
20260507233710 94 270 2.0 8.0 0.00 0.00 0.00 8 916.0
20260507233605 94 252 2.0 8.0 0.00 0.00 0.00 8 916.0
20260507233238 94 231 2.0 8.0 0.00 0.00 0.00 8 915.9
20260507232913 94 246 3.0 9.0 0.00 0.00 0.00 7 916.0
20260507232807 94 311 4.0 9.0 0.00 0.00 0.00 8 916.0
20260507232659 94 248 4.0 9.0 0.00 0.00 0.00 8 916.0
20260507232554 94 269 4.0 9.0 0.00 0.00 0.00 8 916.0
20260507232447 94 254 5.0 9.0 0.00 0.00 0.00 8 916.0
20260507232346 94 270 5.0 9.0 0.00 0.00 0.00 8 916.0
20260507232240 94 222 5.0 9.0 0.00 0.00 0.00 7 916.0
20260507232136 94 243 5.0 14.0 0.00 0.00 0.00 8 916.1
20260507232029 94 252 4.0 14.0 0.00 0.00 0.00 8 916.0
20260507231924 94 230 4.0 14.0 0.00 0.00 0.00 8 916.0
20260507231820 94 249 4.0 14.0 0.00 0.00 0.00 8 916.0
20260507231713 94 242 4.0 14.0 0.00 0.00 0.00 8 916.0
20260507231605 94 248 3.0 14.0 0.00 0.00 0.00 8 916.1
20260507231458 94 253 3.0 14.0 0.00 0.00 0.00 8 916.1
20260507231355 94 240 3.0 14.0 0.00 0.00 0.00 8 916.0
20260507231246 94 249 4.0 14.0 0.00 0.00 0.00 8 916.0
20260507231143 94 305 5.0 14.0 0.00 0.00 0.00 9 916.1
20260507231037 94 302 5.0 14.0 0.00 0.00 0.00 9 916.2
20260507230932 94 242 6.0 14.0 0.00 0.00 0.00 8 916.1
20260507230825 94 215 6.0 14.0 0.00 0.00 0.00 9 916.1
20260507230722 94 244 6.0 14.0 0.00 0.00 0.00 9 916.1
20260507230615 94 202 6.0 14.0 0.00 0.00 0.00 9 916.1
20260507230513 94 232 6.0 14.0 0.00 0.00 0.00 9 916.2
20260507230407 94 257 5.0 14.0 0.00 0.00 0.00 9 916.2
20260507230041 94 234 3.0 15.0 0.00 0.00 0.00 9 916.1
20260507225715 94 290 2.0 15.0 0.00 0.00 0.00 9 916.2
20260507225351 94 218 2.0 15.0 0.00 0.00 0.00 9 916.2
20260507225248 94 305 2.0 15.0 0.00 0.00 0.00 9 916.3
20260507225141 94 291 3.0 15.0 0.00 0.00 0.00 9 916.3
20260507225038 94 261 3.0 15.0 0.00 0.00 0.00 9 916.2
20260507224930 94 0 4.0 15.0 0.00 0.00 0.00 10 916.3
20260507224826 94 5 4.0 15.0 0.00 0.00 0.00 10 916.3
20260507224719 94 294 5.0 15.0 0.00 0.00 0.00 10 916.2
20260507224611 93 209 5.0 15.0 0.00 0.00 0.00 10 916.3
20260507224507 93 221 6.0 15.0 0.00 0.00 0.00 10 916.3
20260507224404 94 190 6.0 15.0 0.00 0.00 0.00 10 916.3
20260507224037 94 218 5.0 12.0 0.00 0.00 0.00 9 916.4
20260507223930 94 221 5.0 12.0 0.00 0.00 0.00 9 916.4
20260507223826 94 234 5.0 12.0 0.00 0.00 0.00 9 916.5
20260507223723 94 228 4.0 12.0 0.00 0.00 0.00 9 916.4
20260507223400 94 302 4.0 12.0 0.00 0.00 0.00 9 916.5
20260507223257 94 265 4.0 12.0 0.00 0.00 0.00 9 916.6
20260507223156 94 273 4.0 12.0 0.00 0.00 0.00 9 916.6
20260507223050 94 15 5.0 12.0 0.00 0.00 0.00 9 916.5
20260507222948 94 281 5.0 12.0 0.00 0.00 0.00 10 916.6
20260507222844 94 232 4.0 12.0 0.00 0.00 0.00 10 916.6
20260507222521 94 262 4.0 12.0 0.00 0.00 0.00 9 916.7
20260507222417 94 215 4.0 12.0 0.00 0.00 0.00 10 916.7
20260507222310 94 214 4.0 12.0 0.00 0.00 0.00 9 916.7
20260507221947 94 223 3.0 8.0 0.00 0.00 0.00 10 916.8
20260507221401 94 40 2.0 11.0 0.00 0.00 0.00 10 916.8
20260507221036 94 256 2.0 11.0 0.00 0.00 0.00 10 916.9
20260507220930 94 250 2.0 11.0 0.00 0.00 0.00 10 916.9
20260507220823 94 283 2.0 11.0 0.00 0.00 0.00 10 916.9
20260507220720 94 300 2.0 11.0 0.00 0.00 0.00 10 916.9
20260507220615 94 307 3.0 11.0 0.00 0.00 0.00 10 917.0
20260507220513 94 298 3.0 11.0 0.00 0.00 0.00 10 917.0
20260507220411 94 0 3.0 11.0 0.00 0.00 0.00 11 917.0
20260507220305 94 319 3.0 11.0 0.00 0.00 0.00 10 917.0
20260507220159 94 290 3.0 11.0 0.00 0.00 0.00 10 917.1
20260507220057 94 273 3.0 11.0 0.00 0.00 0.00 10 917.0
20260507215951 94 315 3.0 11.0 0.00 0.00 0.00 10 917.1
20260507215847 94 328 3.0 11.0 0.00 0.00 0.00 11 917.1
20260507215526 94 246 3.0 8.0 0.00 0.00 0.00 10 917.1
20260507215423 94 183 2.0 8.0 0.00 0.00 0.00 10 917.1
20260507215318 94 198 2.0 8.0 0.00 0.00 0.00 10 917.1
20260507215215 94 223 2.0 8.0 0.00 0.00 0.00 10 917.1
20260507215110 94 229 2.0 8.0 0.00 0.00 0.00 10 917.2
20260507215006 94 252 2.0 10.0 0.00 0.00 0.00 10 917.2
20260507214902 94 0 2.0 10.0 0.00 0.00 0.00 10 917.2
20260507214757 94 251 2.0 10.0 0.00 0.00 0.00 10 917.3
20260507214431 94 302 2.0 10.0 0.00 0.00 0.00 11 917.4
20260507214104 94 305 2.0 10.0 0.00 0.00 0.00 11 917.4
20260507213957 94 24 2.0 10.0 0.00 0.00 0.00 10 917.4
20260507213627 94 321 2.0 10.0 0.00 0.00 0.00 11 917.4
20260507213304 94 263 2.0 10.0 0.00 0.00 0.00 11 917.6
20260507212939 94 274 2.0 7.0 0.00 0.00 0.00 11 917.5
20260507212833 94 317 2.0 7.0 0.00 0.00 0.00 11 917.6
20260507212727 94 248 2.0 7.0 0.00 0.00 0.00 11 917.6
20260507212621 94 215 2.0 7.0 0.00 0.00 0.00 11 917.7
20260507212514 94 290 2.0 7.0 0.00 0.00 0.00 11 917.6
20260507212149 93 239 2.0 7.0 0.00 0.00 0.00 11 917.7
20260507212042 93 355 2.0 7.0 0.00 0.00 0.00 11 917.8
20260507211940 93 294 2.0 7.0 0.00 0.00 0.00 12 917.8
20260507211618 93 284 3.0 10.0 0.00 0.00 0.00 11 917.8
20260507211516 93 329 3.0 10.0 0.00 0.00 0.00 11 917.8
20260507211151 93 265 4.0 10.0 0.00 0.00 0.00 11 917.8
20260507211047 93 221 4.0 10.0 0.00 0.00 0.00 11 917.8
20260507210939 93 274 5.0 10.0 0.00 0.00 0.00 11 917.8
20260507210832 93 207 4.0 10.0 0.00 0.00 0.00 11 917.8
20260507210727 93 215 4.0 10.0 0.00 0.00 0.00 11 917.9
20260507210621 92 236 4.0 10.0 0.00 0.00 0.00 11 917.9
20260507210518 93 224 4.0 10.0 0.00 0.00 0.00 11 917.9
20260507210415 93 225 3.0 10.0 0.00 0.00 0.00 11 917.9
20260507210307 92 223 3.0 10.0 0.00 0.00 0.00 11 917.9
20260507210201 92 237 2.0 10.0 0.00 0.00 0.00 11 918.0
20260507210054 92 248 2.0 10.0 0.00 0.00 0.00 11 918.0
20260507205952 93 231 1.0 10.0 0.00 0.00 0.00 11 918.0
20260507205850 93 226 1.0 9.0 0.00 0.00 0.00 11 918.1
20260507205748 92 344 1.0 9.0 0.00 0.00 0.00 11 918.1
20260507205422 92 338 2.0 9.0 0.00 0.00 0.00 12 918.1
20260507205316 92 157 2.0 9.0 0.00 0.00 0.00 12 918.2
20260507205211 92 308 2.0 9.0 0.00 0.00 0.00 12 918.2
20260507205105 92 337 2.0 9.0 0.00 0.00 0.00 12 918.2
20260507204958 92 294 2.0 9.0 0.00 0.00 0.00 12 918.2
20260507204853 91 312 2.0 9.0 0.00 0.00 0.00 12 918.2
20260507204748 91 0 2.0 9.0 0.00 0.00 0.00 12 918.2
20260507204642 91 283 2.0 9.0 0.00 0.00 0.00 12 918.2
20260507204537 91 184 2.0 9.0 0.00 0.00 0.00 12 918.2
20260507204431 91 316 1.0 9.0 0.00 0.00 0.00 12 918.2
20260507204325 91 280 1.0 8.0 0.00 0.00 0.00 12 918.2
20260507204221 91 333 1.0 6.0 0.00 0.00 0.00 12 918.3
20260507204116 91 288 1.0 6.0 0.00 0.00 0.00 12 918.2
20260507204011 91 22 1.0 6.0 0.00 0.00 0.00 12 918.3
20260507203905 91 334 2.0 6.0 0.00 0.00 0.00 12 918.3
20260507203543 91 23 2.0 6.0 0.00 0.00 0.00 12 918.3
20260507203218 92 52 2.0 9.0 0.00 0.00 0.00 12 918.3
20260507203113 92 18 2.0 9.0 0.00 0.00 0.00 12 918.4
20260507203007 92 293 2.0 9.0 0.00 0.00 0.00 13 918.3
20260507202643 92 11 2.0 9.0 0.00 0.00 0.00 12 918.4
20260507202538 92 350 2.0 9.0 0.00 0.00 0.00 13 918.4
20260507202217 92 5 2.0 9.0 0.00 0.00 0.00 12 918.4
20260507202109 92 5 2.0 9.0 0.00 0.00 0.00 12 918.4
20260507202003 92 287 3.0 9.0 0.00 0.00 0.00 13 918.4
20260507201858 91 0 3.0 9.0 0.00 0.00 0.00 12 918.4
20260507201750 91 281 3.0 9.0 0.00 0.00 0.00 13 918.4
20260507201646 92 298 2.0 9.0 0.00 0.00 0.00 12 918.5
20260507201539 92 293 2.0 9.0 0.00 0.00 0.00 13 918.5
20260507201435 91 301 2.0 9.0 0.00 0.00 0.00 13 918.5
20260507201333 91 245 2.0 9.0 0.00 0.00 0.00 13 918.4
20260507201229 91 217 1.0 7.0 0.00 0.00 0.00 13 918.4
20260507200906 91 254 1.0 5.0 0.00 0.00 0.00 13 918.5
20260507200803 91 311 1.0 5.0 0.00 0.00 0.00 13 918.5
20260507200701 91 229 1.0 5.0 0.00 0.00 0.00 13 918.5
20260507200557 91 324 1.0 5.0 0.00 0.00 0.00 13 918.5
20260507200452 91 26 1.0 5.0 0.00 0.00 0.00 14 918.5
20260507200348 91 322 1.0 5.0 0.00 0.00 0.00 13 918.5
20260507200241 91 28 1.0 7.0 0.00 0.00 0.00 13 918.6
20260507195659 90 177 2.0 7.0 0.00 0.00 0.00 14 918.6
20260507195554 90 105 2.0 7.0 0.00 0.00 0.00 13 918.6
20260507195449 90 74 2.0 7.0 0.00 0.00 0.00 13 918.7
20260507195125 91 247 2.0 8.0 0.00 0.00 0.00 14 918.7
20260507195019 90 225 1.0 8.0 0.00 0.00 0.00 14 918.8
20260507194916 90 208 1.0 8.0 0.00 0.00 0.00 14 918.8
20260507194812 90 269 1.0 8.0 0.00 0.00 0.00 13 918.8
20260507194705 90 322 1.0 8.0 0.00 0.00 0.00 14 918.8
20260507194601 90 230 0.0 8.0 0.00 0.00 0.00 14 918.8
20260507194457 90 294 0.0 8.0 0.00 0.00 0.00 14 918.9
20260507194350 90 345 0.0 8.0 0.00 0.00 0.00 14 918.9
20260507194247 90 148 1.0 8.0 0.00 0.00 0.00 14 918.9
20260507193928 90 240 2.0 8.0 0.00 0.00 0.00 14 918.8
20260507193823 90 212 2.0 8.0 0.00 0.00 0.00 14 918.9
20260507193721 90 178 2.0 8.0 0.00 0.00 0.00 14 919.0
20260507193617 90 220 2.0 8.0 0.00 0.00 0.00 14 919.0
20260507193511 90 245 2.0 8.0 0.00 0.00 0.00 14 919.0
20260507193405 90 173 2.0 8.0 0.00 0.00 0.00 15 919.0
20260507193300 89 230 1.0 6.0 0.00 0.00 0.00 15 919.0
20260507193155 89 331 1.0 6.0 0.00 0.00 0.00 14 919.0
20260507193049 89 291 1.0 8.0 0.00 0.00 0.00 14 919.0
20260507192943 89 199 0.0 8.0 0.00 0.00 0.00 15 919.0
20260507192837 89 245 0.0 8.0 0.00 0.00 0.00 15 919.1
20260507192735 89 292 0.0 8.0 0.00 0.00 0.00 15 919.1
20260507192631 89 340 0.0 8.0 0.00 0.00 0.00 15 919.1
20260507192529 89 339 0.0 8.0 0.00 0.00 0.00 15 919.1
20260507192422 89 78 0.0 8.0 0.00 0.00 0.00 15 919.1
20260507192318 89 46 1.0 8.0 0.00 0.00 0.00 15 919.1
20260507192215 89 5 1.0 8.0 0.00 0.00 0.00 15 919.1
20260507191633 89 247 2.0 8.0 0.00 0.00 0.00 15 919.3
20260507191528 89 225 2.0 8.0 0.00 0.00 0.00 15 919.3
20260507191423 89 184 2.0 8.0 0.00 0.00 0.00 15 919.4
20260507191059 88 240 0.0 4.0 0.00 0.00 0.00 15 919.4
20260507190736 88 182 0.0 9.0 0.00 0.00 0.00 15 919.5
20260507190635 88 173 1.0 9.0 0.00 0.00 0.00 15 919.5
20260507190530 88 173 1.0 9.0 0.00 0.00 0.00 15 919.5
20260507190426 88 175 1.0 9.0 0.00 0.00 0.00 15 919.6
20260507190322 88 211 1.0 9.0 0.00 0.00 0.00 15 919.6
20260507190217 88 309 2.0 9.0 0.00 0.00 0.00 15 919.7
20260507190112 88 313 2.0 9.0 0.00 0.00 0.00 15 919.6
20260507190005 88 309 2.0 9.0 0.00 0.00 0.00 16 919.7
20260507185858 88 301 3.0 9.0 0.00 0.00 0.00 16 919.7
20260507185755 88 288 3.0 9.0 0.00 0.00 0.00 15 919.7
20260507185651 88 258 2.0 9.0 0.00 0.00 0.00 16 919.7
20260507185549 89 313 2.0 9.0 0.00 0.00 0.00 16 919.7
20260507185442 89 320 2.0 9.0 0.00 0.00 0.00 15 919.7
20260507185118 89 217 2.0 9.0 0.00 0.00 0.00 15 919.8
20260507185011 89 234 1.0 9.0 0.00 0.00 0.00 15 919.8
20260507184647 89 301 1.0 8.0 0.00 0.00 0.00 15 919.7
20260507184542 89 344 1.0 8.0 0.00 0.00 0.00 16 919.8
20260507184437 88 238 1.0 8.0 0.00 0.00 0.00 16 919.8
20260507184332 88 268 1.0 8.0 0.00 0.00 0.00 16 919.8
20260507184230 88 294 1.0 8.0 0.00 0.00 0.00 16 919.8
20260507183901 88 234 2.0 8.0 0.00 0.00 0.00 16 919.8
20260507183757 88 150 2.0 8.0 0.00 0.00 0.00 16 919.9
20260507183649 88 181 2.0 8.0 0.00 0.00 0.00 16 919.9
20260507183543 88 272 2.0 8.0 0.00 0.00 0.00 16 919.9
20260507183435 88 255 2.0 8.0 0.00 0.00 0.00 16 919.8
20260507182852 88 276 1.0 5.0 0.00 0.00 0.00 16 919.9
20260507182528 88 238 1.0 4.0 0.00 0.00 0.00 16 919.8
20260507182420 88 232 1.0 4.0 0.00 0.00 0.00 16 919.9
20260507182053 88 219 0.0 4.0 0.00 0.00 0.00 16 920.0
20260507181951 87 311 0.0 4.0 0.00 0.00 0.00 16 920.0
20260507181847 87 323 0.0 4.0 0.00 0.00 0.00 16 920.0
20260507181744 87 53 0.0 4.0 0.00 0.00 0.00 18 920.0
20260507181637 87 312 0.0 4.0 0.00 0.00 0.00 17 920.0
20260507181529 87 318 0.0 4.0 0.00 0.00 0.00 17 920.0
20260507181424 87 183 1.0 4.0 0.00 0.00 0.00 17 920.1
20260507181318 87 245 1.0 3.0 0.00 0.00 0.00 17 920.0
20260507181210 87 282 1.0 3.0 0.00 0.00 0.00 17 920.0
20260507181105 86 238 1.0 3.0 0.00 0.00 0.00 17 920.1
20260507181001 86 285 1.0 3.0 0.00 0.00 0.00 17 920.1
20260507180854 86 287 1.0 3.0 0.00 0.00 0.00 17 920.1
20260507180528 86 306 0.0 3.0 0.00 0.00 0.00 17 920.1
20260507180421 86 235 0.0 3.0 0.00 0.00 0.00 18 920.2
20260507180319 86 294 0.0 2.0 0.00 0.00 0.00 18 920.2
20260507180212 86 243 0.0 6.0 0.00 0.00 0.00 18 920.2
20260507180109 85 299 0.0 6.0 0.00 0.00 0.00 18 920.2
20260507180004 85 298 0.0 6.0 0.00 0.00 0.00 18 920.2
20260507175902 85 227 0.0 6.0 0.00 0.00 0.00 18 920.2
20260507175316 85 333 1.0 6.0 0.00 0.00 0.00 18 920.3
20260507175210 85 295 1.0 6.0 0.00 0.00 0.00 17 920.3
20260507175107 85 17 1.0 6.0 0.00 0.00 0.00 17 920.3
20260507175003 85 163 1.0 6.0 0.00 0.00 0.00 17 920.2
20260507174856 85 227 1.0 6.0 0.00 0.00 0.00 17 920.3
20260507174749 85 271 1.0 6.0 0.00 0.00 0.00 18 920.3
20260507174646 85 221 1.0 6.0 0.00 0.00 0.00 17 920.3
20260507174322 85 232 1.0 6.0 0.00 0.00 0.00 18 920.4
20260507174221 85 223 0.0 6.0 0.00 0.00 0.00 18 920.4
20260507174115 85 221 1.0 5.0 0.00 0.00 0.00 18 920.3
20260507174008 84 290 1.0 5.0 0.00 0.00 0.00 18 920.4
20260507173902 84 329 1.0 5.0 0.00 0.00 0.00 18 920.3
20260507173538 84 200 1.0 5.0 0.00 0.00 0.00 18 920.4
20260507173432 84 200 1.0 5.0 0.00 0.00 0.00 18 920.4
20260507173327 84 203 1.0 5.0 0.00 0.00 0.00 18 920.4
20260507173219 84 219 1.0 5.0 0.00 0.00 0.00 19 920.4
20260507173116 84 236 0.0 5.0 0.00 0.00 0.00 19 920.4
20260507173013 84 278 0.0 3.0 0.00 0.00 0.00 19 920.4
20260507172907 83 286 1.0 3.0 0.00 0.00 0.00 19 920.4
20260507172800 83 300 0.0 3.0 0.00 0.00 0.00 20 920.4
20260507172658 83 250 1.0 3.0 0.00 0.00 0.00 19 920.4
20260507172556 83 269 1.0 3.0 0.00 0.00 0.00 19 920.5
20260507172450 83 282 1.0 3.0 0.00 0.00 0.00 19 920.5
20260507172123 83 333 1.0 5.0 0.00 0.00 0.00 19 920.5
20260507172016 83 355 1.0 5.0 0.00 0.00 0.00 19 920.5
20260507171913 83 307 1.0 5.0 0.00 0.00 0.00 19 920.5
20260507171547 83 242 0.0 5.0 0.00 0.00 0.00 19 920.5
20260507171441 82 323 0.0 5.0 0.00 0.00 0.00 19 920.5
20260507171337 82 291 0.0 5.0 0.00 0.00 0.00 19 920.5
20260507171233 82 294 1.0 5.0 0.00 0.00 0.00 19 920.5
20260507170651 82 231 1.0 5.0 0.00 0.00 0.00 20 920.6
20260507170546 82 252 1.0 5.0 0.00 0.00 0.00 20 920.6
20260507170441 82 268 1.0 5.0 0.00 0.00 0.00 19 920.6
20260507165632 81 244 0.0 5.0 0.00 0.00 0.00 21 920.7
20260507165308 81 350 0.0 5.0 0.00 0.00 0.00 20 920.7
20260507165201 80 306 1.0 5.0 0.00 0.00 0.00 20 920.7
20260507164834 80 311 1.0 5.0 0.00 0.00 0.00 21 920.7
20260507164727 80 292 1.0 5.0 0.00 0.00 0.00 21 920.7
20260507164621 80 284 1.0 5.0 0.00 0.00 0.00 21 920.7
20260507164515 80 294 1.0 5.0 0.00 0.00 0.00 21 920.7
20260507164412 80 331 0.0 5.0 0.00 0.00 0.00 22 920.7
20260507164306 80 281 0.0 5.0 0.00 0.00 0.00 21 920.7
20260507164203 80 271 0.0 5.0 0.00 0.00 0.00 22 920.7
20260507164100 80 336 0.0 5.0 0.00 0.00 0.00 22 920.7
20260507163954 80 304 0.0 5.0 0.00 0.00 0.00 22 920.7
20260507163624 79 259 0.0 3.0 0.00 0.00 0.00 22 920.8
20260507163518 79 284 0.0 3.0 0.00 0.00 0.00 23 920.8
20260507163414 79 267 1.0 3.0 0.00 0.00 0.00 22 920.8
20260507163308 79 284 1.0 3.0 0.00 0.00 0.00 22 920.8
20260507163203 79 300 1.0 3.0 0.00 0.00 0.00 23 920.9
20260507163056 79 296 1.0 3.0 0.00 0.00 0.00 22 920.8
20260507162729 78 290 1.0 3.0 0.00 0.00 0.00 23 920.9
20260507162621 78 227 1.0 3.0 0.00 0.00 0.00 24 921.0
20260507162519 78 244 1.0 3.0 0.00 0.00 0.00 23 920.9
20260507162411 78 249 1.0 3.0 0.00 0.00 0.00 23 920.9
20260507162307 78 240 1.0 3.0 0.00 0.00 0.00 23 920.9
20260507162158 78 239 0.0 3.0 0.00 0.00 0.00 22 920.9
20260507162052 78 248 0.0 3.0 0.00 0.00 0.00 23 920.9
20260507161947 78 274 0.0 3.0 0.00 0.00 0.00 23 920.9
20260507161842 78 242 0.0 3.0 0.00 0.00 0.00 23 921.0
20260507161516 77 283 0.0 3.0 0.00 0.00 0.00 24 920.9
20260507161409 77 263 0.0 3.0 0.00 0.00 0.00 24 920.9
20260507161306 77 270 0.0 3.0 0.00 0.00 0.00 24 920.9
20260507161204 77 270 0.0 3.0 0.00 0.00 0.00 23 921.0
20260507161059 77 291 0.0 2.0 0.00 0.00 0.00 23 921.0
20260507160956 77 287 0.0 2.0 0.00 0.00 0.00 24 920.9
20260507160849 76 287 0.0 2.0 0.00 0.00 0.00 24 921.0
20260507160744 76 280 0.0 2.0 0.00 0.00 0.00 25 921.0
20260507160640 76 291 0.0 2.0 0.00 0.00 0.00 25 921.0
20260507160533 76 302 0.0 2.0 0.00 0.00 0.00 24 921.0
20260507160426 76 346 0.0 3.0 0.00 0.00 0.00 25 921.0
20260507160321 76 274 0.0 3.0 0.00 0.00 0.00 25 921.0
20260507160216 76 304 0.0 3.0 0.00 0.00 0.00 25 921.0
20260507160110 76 300 1.0 3.0 0.00 0.00 0.00 25 921.1
20260507160003 76 286 0.0 3.0 0.00 0.00 0.00 25 921.0
20260507155857 75 240 1.0 3.0 0.00 0.00 0.00 25 921.1
20260507155755 75 306 1.0 3.0 0.00 0.00 0.00 24 921.1
20260507155648 75 350 1.0 3.0 0.00 0.00 0.00 25 921.1
20260507155543 75 342 1.0 3.0 0.00 0.00 0.00 25 921.1
20260507155438 75 275 1.0 3.0 0.00 0.00 0.00 26 921.1
20260507155335 75 284 1.0 3.0 0.00 0.00 0.00 26 921.2
20260507155230 75 269 0.0 3.0 0.00 0.00 0.00 26 921.1
20260507154906 74 327 0.0 3.0 0.00 0.00 0.00 25 921.2
20260507154803 74 344 0.0 3.0 0.00 0.00 0.00 25 921.2
20260507154655 74 355 0.0 3.0 0.00 0.00 0.00 27 921.2
20260507154549 74 308 0.0 3.0 0.00 0.00 0.00 26 921.2
20260507154447 74 294 0.0 3.0 0.00 0.00 0.00 26 921.2
20260507154343 74 288 0.0 3.0 0.00 0.00 0.00 26 921.2
20260507154239 74 265 0.0 3.0 0.00 0.00 0.00 26 921.2
20260507154133 74 284 0.0 3.0 0.00 0.00 0.00 27 921.2
20260507153808 73 265 0.0 3.0 0.00 0.00 0.00 27 921.2
20260507153701 73 302 0.0 3.0 0.00 0.00 0.00 27 921.2
20260507153558 73 301 0.0 3.0 0.00 0.00 0.00 27 921.2
20260507153451 73 304 0.0 2.0 0.00 0.00 0.00 27 921.2
20260507153345 73 288 0.0 2.0 0.00 0.00 0.00 28 921.2
20260507153239 73 235 0.0 2.0 0.00 0.00 0.00 29 921.2
20260507153133 72 270 0.0 2.0 0.00 0.00 0.00 29 921.2
20260507152809 72 284 0.0 3.0 0.00 0.00 0.00 28 921.2
20260507152703 72 240 0.0 3.0 0.00 0.00 0.00 28 921.2
20260507152602 72 259 0.0 3.0 0.00 0.00 0.00 28 921.2
20260507152455 71 258 0.0 3.0 0.00 0.00 0.00 28 921.3
20260507152350 71 243 0.0 3.0 0.00 0.00 0.00 28 921.2
20260507152247 71 238 0.0 3.0 0.00 0.00 0.00 28 921.2
20260507152144 71 323 0.0 3.0 0.00 0.00 0.00 29 921.2
20260507152041 71 323 0.0 3.0 0.00 0.00 0.00 29 921.2
20260507151235 70 256 1.0 3.0 0.00 0.00 0.00 28 921.2
20260507150218 69 243 1.0 3.0 0.00 0.00 0.00 29 921.2
20260507150113 69 237 1.0 3.0 0.00 0.00 0.00 30 921.2
20260507150009 69 243 1.0 3.0 0.00 0.00 0.00 30 921.2
20260507145905 69 242 1.0 3.0 0.00 0.00 0.00 29 921.2
20260507145800 69 229 1.0 3.0 0.00 0.00 0.00 29 921.2
20260507145216 69 213 1.0 3.0 0.00 0.00 0.00 30 921.2
20260507144854 68 233 1.0 3.0 0.00 0.00 0.00 30 921.2
20260507144528 68 213 0.0 3.0 0.00 0.00 0.00 30 921.2
20260507144423 68 244 0.0 3.0 0.00 0.00 0.00 31 921.2
20260507144316 68 244 1.0 3.0 0.00 0.00 0.00 30 921.2
20260507144208 68 217 1.0 3.0 0.00 0.00 0.00 31 921.1
20260507144104 68 232 1.0 3.0 0.00 0.00 0.00 31 921.2
20260507143959 68 239 1.0 3.0 0.00 0.00 0.00 32 921.2
20260507143629 68 241 1.0 3.0 0.00 0.00 0.00 33 921.1
20260507143523 67 241 1.0 3.0 0.00 0.00 0.00 32 921.2
20260507143418 67 224 1.0 3.0 0.00 0.00 0.00 32 921.2
20260507143315 67 240 1.0 3.0 0.00 0.00 0.00 32 921.1
20260507143212 67 233 1.0 3.0 0.00 0.00 0.00 31 921.2
20260507142632 67 235 1.0 3.0 0.00 0.00 0.00 33 921.2
20260507142524 67 260 1.0 2.0 0.00 0.00 0.00 33 921.2
20260507142200 66 241 1.0 2.0 0.00 0.00 0.00 33 921.2
20260507142057 66 234 1.0 2.0 0.00 0.00 0.00 34 921.1
20260507141950 66 228 1.0 2.0 0.00 0.00 0.00 33 921.2
20260507141842 66 250 1.0 2.0 0.00 0.00 0.00 33 921.1
20260507141520 65 241 0.0 2.0 0.00 0.00 0.00 33 921.1
20260507141417 65 241 0.0 2.0 0.00 0.00 0.00 34 921.1
20260507141312 65 242 0.0 2.0 0.00 0.00 0.00 34 921.1
20260507141210 65 248 0.0 1.0 0.00 0.00 0.00 34 921.0
20260507140844 64 284 0.0 1.0 0.00 0.00 0.00 35 921.1
20260507140739 64 290 0.0 1.0 0.00 0.00 0.00 35 921.0
20260507140634 64 295 0.0 1.0 0.00 0.00 0.00 36 921.0
20260507140527 64 295 0.0 1.0 0.00 0.00 0.00 36 921.0
20260507140421 63 332 0.0 0.0 0.00 0.00 0.00 36 921.0
20260507140314 63 332 0.0 0.0 0.00 0.00 0.00 36 921.0
20260507140208 63 332 0.0 0.0 0.00 0.00 0.00 36 921.0
20260507140101 63 332 0.0 1.0 0.00 0.00 0.00 36 921.0
20260507135740 63 355 0.0 0.0 0.00 0.00 0.00 38 920.9
20260507135637 62 355 0.0 0.0 0.00 0.00 0.00 38 921.0
20260507135535 62 355 0.0 0.0 0.00 0.00 0.00 38 920.9
20260507135431 62 355 0.0 0.0 0.00 0.00 0.00 38 920.9
20260507135324 62 355 0.0 0.0 0.00 0.00 0.00 38 920.9
20260507135004 62 355 0.0 0.0 0.00 0.00 0.00 37 920.9
20260507134901 61 355 0.0 0.0 0.00 0.00 0.00 37 920.9
20260507134755 61 355 0.0 0.0 0.00 0.00 0.00 37 920.9
20260507134649 61 355 0.0 0.0 0.00 0.00 0.00 37 920.9
20260507134545 61 355 0.0 0.0 0.00 0.00 0.00 37 920.9
20260507134218 61 355 0.0 0.0 0.00 0.00 0.00 37 920.9
20260507133854 60 355 0.0 0.0 0.00 0.00 0.00 38 920.8
20260507133747 60 355 0.0 0.0 0.00 0.00 0.00 37 920.8
20260507133645 60 355 0.0 2.0 0.00 0.00 0.00 37 920.8
20260507133541 60 355 0.0 2.0 0.00 0.00 0.00 37 920.8
20260507133437 60 355 0.0 2.0 0.00 0.00 0.00 37 920.8
20260507133112 60 355 0.0 2.0 0.00 0.00 0.00 37 920.7
20260507133004 60 355 0.0 2.0 0.00 0.00 0.00 37 920.8
20260507132857 60 355 0.0 2.0 0.00 0.00 0.00 37 920.7
20260507132753 60 355 0.0 2.0 0.00 0.00 0.00 37 920.8
20260507132648 60 355 0.0 2.0 0.00 0.00 0.00 38 920.8
20260507132543 60 355 0.0 2.0 0.00 0.00 0.00 38 920.7
20260507132435 60 5 0.0 2.0 0.00 0.00 0.00 38 920.7
20260507132332 60 5 0.0 2.0 0.00 0.00 0.00 38 920.7
20260507132007 60 11 0.0 1.0 0.00 0.00 0.00 38 920.7
20260507131905 60 355 0.0 1.0 0.00 0.00 0.00 38 920.7
20260507131758 59 5 0.0 1.0 0.00 0.00 0.00 38 920.7
20260507131652 59 5 0.0 1.0 0.00 0.00 0.00 38 920.7
20260507131325 59 355 0.0 1.0 0.00 0.00 0.00 38 920.6
20260507131219 59 355 0.0 1.0 0.00 0.00 0.00 38 920.7
20260507131112 59 355 0.0 1.0 0.00 0.00 0.00 38 920.6
20260507131010 59 355 0.0 1.0 0.00 0.00 0.00 38 920.7
20260507130906 59 355 0.0 0.0 0.00 0.00 0.00 38 920.7
20260507130540 59 355 0.0 0.0 0.00 0.00 0.00 38 920.6
20260507130435 59 355 0.0 0.0 0.00 0.00 0.00 38 920.6
20260507130329 59 355 0.0 0.0 0.00 0.00 0.00 37 920.6
20260507130008 59 355 0.0 0.0 0.00 0.00 0.00 37 920.6
20260507125904 59 355 0.0 1.0 0.00 0.00 0.00 37 920.6
20260507125800 59 355 0.0 1.0 0.00 0.00 0.00 37 920.6
20260507125653 59 355 0.0 1.0 0.00 0.00 0.00 37 920.6
20260507125551 59 355 0.0 1.0 0.00 0.00 0.00 37 920.6
20260507125448 59 355 0.0 1.0 0.00 0.00 0.00 37 920.5
20260507125127 59 355 0.0 1.0 0.00 0.00 0.00 37 920.5
20260507125023 59 355 0.0 1.0 0.00 0.00 0.00 37 920.6
20260507124921 59 355 0.0 0.0 0.00 0.00 0.00 37 920.5
20260507124558 59 355 0.0 1.0 0.00 0.00 0.00 38 920.6
20260507124451 59 355 0.0 1.0 0.00 0.00 0.00 37 920.5
20260507124347 59 355 0.0 1.0 0.00 0.00 0.00 37 920.5
20260507124244 59 355 0.0 1.0 0.00 0.00 0.00 37 920.5
20260507124138 59 355 0.0 1.0 0.00 0.00 0.00 37 920.5
20260507124031 59 355 0.0 1.0 0.00 0.00 0.00 37 920.5
20260507123923 59 355 0.0 1.0 0.00 0.00 0.00 37 920.5
20260507123820 59 355 0.0 1.0 0.00 0.00 0.00 37 920.5
20260507123717 59 355 0.0 0.0 0.00 0.00 0.00 37 920.5
20260507123610 59 355 0.0 0.0 0.00 0.00 0.00 37 920.5
20260507123244 59 355 0.0 1.0 0.00 0.00 0.00 37 920.5
20260507123137 59 355 0.0 1.0 0.00 0.00 0.00 37 920.4
20260507123036 59 355 0.0 1.0 0.00 0.00 0.00 37 920.5
20260507122930 59 355 0.0 1.0 0.00 0.00 0.00 37 920.5
20260507122823 59 355 0.0 1.0 0.00 0.00 0.00 37 920.5
20260507122715 59 355 0.0 1.0 0.00 0.00 0.00 37 920.4
20260507122611 59 355 0.0 1.0 0.00 0.00 0.00 37 920.5
20260507122503 59 355 0.0 1.0 0.00 0.00 0.00 37 920.4
20260507122358 60 355 0.0 1.0 0.00 0.00 0.00 37 920.4
20260507122255 60 355 0.0 1.0 0.00 0.00 0.00 37 920.4
20260507122149 60 355 0.0 1.0 0.00 0.00 0.00 37 920.4
20260507122045 60 355 0.0 1.0 0.00 0.00 0.00 37 920.4
20260507121939 60 355 0.0 1.0 0.00 0.00 0.00 37 920.4
20260507121833 60 355 0.0 0.0 0.00 0.00 0.00 37 920.4
20260507121727 60 355 0.0 0.0 0.00 0.00 0.00 37 920.4
20260507121620 60 355 0.0 0.0 0.00 0.00 0.00 37 920.4
20260507121515 60 355 0.0 0.0 0.00 0.00 0.00 36 920.4
20260507121153 60 355 0.0 0.0 0.00 0.00 0.00 36 920.4
20260507121048 60 355 0.0 0.0 0.00 0.00 0.00 36 920.4
20260507120945 60 355 0.0 0.0 0.00 0.00 0.00 36 920.4
20260507120841 60 355 0.0 0.0 0.00 0.00 0.00 36 920.4
20260507120734 60 355 0.0 0.0 0.00 0.00 0.00 36 920.4
20260507120626 60 355 0.0 1.0 0.00 0.00 0.00 36 920.4
20260507120520 60 355 0.0 1.0 0.00 0.00 0.00 36 920.4
20260507120418 60 355 0.0 1.0 0.00 0.00 0.00 36 920.4
20260507120055 60 355 0.0 1.0 0.00 0.00 0.00 36 920.4
20260507115948 60 355 0.0 1.0 0.00 0.00 0.00 36 920.4
20260507115843 60 355 0.0 1.0 0.00 0.00 0.00 36 920.4
20260507115740 60 355 0.0 1.0 0.00 0.00 0.00 36 920.4
20260507115157 60 355 0.0 1.0 0.00 0.00 0.00 36 920.4
20260507115049 60 355 0.0 1.0 0.00 0.00 0.00 36 920.4
20260507114947 60 355 0.0 1.0 0.00 0.00 0.00 36 920.4
20260507114844 60 355 0.0 1.0 0.00 0.00 0.00 36 920.4
20260507114740 60 355 0.0 1.0 0.00 0.00 0.00 36 920.4
20260507114635 60 355 0.0 1.0 0.00 0.00 0.00 36 920.4
20260507114311 60 355 0.0 1.0 0.00 0.00 0.00 36 920.3
20260507114208 60 355 0.0 1.0 0.00 0.00 0.00 36 920.3
20260507114101 60 355 0.0 1.0 0.00 0.00 0.00 36 920.3
20260507113959 60 355 0.0 1.0 0.00 0.00 0.00 36 920.3
20260507113853 60 355 0.0 1.0 0.00 0.00 0.00 36 920.4
20260507113749 60 355 0.0 1.0 0.00 0.00 0.00 36 920.4
20260507113645 60 355 0.0 1.0 0.00 0.00 0.00 36 920.3
20260507113541 60 355 0.0 1.0 0.00 0.00 0.00 36 920.4
20260507113434 60 355 0.0 1.0 0.00 0.00 0.00 36 920.4
20260507113108 60 355 0.0 0.0 0.00 0.00 0.00 36 920.4
20260507113001 60 355 0.0 0.0 0.00 0.00 0.00 36 920.4
20260507112853 60 355 0.0 0.0 0.00 0.00 0.00 36 920.4
20260507112747 60 355 0.0 0.0 0.00 0.00 0.00 36 920.4
20260507112641 60 355 0.0 0.0 0.00 0.00 0.00 36 920.4
20260507112538 60 355 0.0 0.0 0.00 0.00 0.00 36 920.4
20260507112214 60 355 0.0 0.0 0.00 0.00 0.00 36 920.3
20260507112107 60 355 0.0 0.0 0.00 0.00 0.00 36 920.3
20260507112004 60 355 0.0 0.0 0.00 0.00 0.00 36 920.3
20260507111638 60 355 0.0 0.0 0.00 0.00 0.00 36 920.3
20260507111533 60 355 0.0 0.0 0.00 0.00 0.00 36 920.3
20260507111427 60 355 0.0 2.0 0.00 0.00 0.00 36 920.3
20260507111107 60 355 0.0 2.0 0.00 0.00 0.00 36 920.3
20260507110739 60 355 0.0 2.0 0.00 0.00 0.00 36 920.3
20260507110633 60 355 0.0 2.0 0.00 0.00 0.00 36 920.3